Skip Page Navigation
NASA JPL Caltech
NASA Logo - Jet Propulsion Laboratory + View the NASA Portal
+ Center for Near-Earth Object Studies
JPL Home Earth Solar System Stars & Galaxies Technology
JPL Solar System Dynamics
BODIES ORBITS EPHEMERIDES TOOLS PHYSICAL DATA DISCOVERY FAQ SITE MAP
JPL Small-Body Database Browser
Search: [ help ]  
362935 (2012 JB5)
Classification: Main-belt Asteroid          SPK-ID: 2362935
Ephemeris | Orbit Diagram | Orbital Elements | Mission Design | Physical Parameters | Discovery Circumstances ]

[ show orbit diagram ]
Orbital Elements at Epoch 2459200.5 (2020-Dec-17.0) TDB
Reference: JPL 21 (heliocentric ecliptic J2000)
 Element Value Uncertainty (1-sigma)   Units 
e .140905405150306 6.4599e-08  
a 2.69560036402063 2.6461e-08 au
q 2.315775702604991 1.6743e-07 au
i 30.1705933291328 7.6853e-06 deg
node 108.213821603198 9.3618e-06 deg
peri 345.5920378407748 2.5243e-05 deg
M 12.39200582796615 2.0001e-05 deg
tp 2459144.855685749236
(2020-Oct-22.35568575)
8.9989e-05 TDB
period 1616.52224897016
4.43
2.3803e-05
6.517e-08
d
yr
n .2227003063084011 3.2792e-09 deg/d
Q 3.075425025436269 3.019e-08 au
  Orbit Determination Parameters
   # obs. used (total)      449  
   data-arc span      6653 days (18.21 yr)  
   first obs. used      2003-01-26  
   last obs. used      2021-04-14  
   planetary ephem.      DE441  
   SB-pert. ephem.      SB441-N16  
   condition code      0  
   norm. resid. RMS      .53643  
   source      ORB  
   producer      Otto Matic  
   solution date      2021-May-04 12:18:30  

Additional Information
 Earth MOID = 1.33791 au 
 Jupiter MOID = 2.10657 au 
 T_jup = 3.162 
[ show covariance matrix ]

Ephemeris | Orbit Diagram | Orbital Elements | Mission Design | Physical Parameters | Discovery Circumstances ]

Physical Parameter Table
Parameter Symbol Value Units Sigma Reference Notes
absolute magnitude H 15.76   n/a MPCxxxxx  

362935 (2012 JB5)          Discovered 2006-Sep-26 by Siding Spring Survey at Siding Spring
Reference: Last Updated: 2013-04-29

Alternate Designations
 2012 JB5 = 2010 KA53 
Ephemeris | Orbit Diagram | Orbital Elements | Mission Design | Physical Parameters | Discovery Circumstances ]
ABOUT SSD CREDITS/AWARDS PRIVACY/COPYRIGHT GLOSSARY LINKS
FirstGov 2021-Jun-15 05:13 UT
(server date/time)  
NASA Home Page
Site Manager:   Ryan S. Park
Webmaster  Alan B. Chamberlin